Location: Lenomiya Observatory
(32.9017°N, 111.7482°W)
Time: 10:55:18
(UTC-07:00)

N. Korean satellite - Visible Passes

Search period start: 25 March 2019 00:00
Search period end: 04 April 2019 00:00
Orbit: 456 x 510 km, 97.2° (Epoch: 24 March)

Date Brightness Start Highest point End Pass type
(mag) Time Alt. Az. Time Alt. Az. Time Alt. Az.
25 Mar 9.4 05:54:50 10° NE 05:57:46 24° E 06:00:45 10° SSE visible
26 Mar 10.3 05:31:47 10° ENE 05:32:50 11° E 05:33:53 10° ESE visible
29 Mar 9.7 05:49:07 10° NE 05:51:52 20° E 05:54:38 10° SE visible
02 Apr 9.8 05:43:25 10° NE 05:45:55 17° E 05:48:24 10° SE visible
